FW2567 Weather Reports


Display with metric or nautical units.
time (UTC)temp
F
wind
direction
speed
MPH
gust
MPH
rain 1hr
in
rain 24hr
in
rain mn
in
humidity
%
barometer
mb
20260902201530 58 349 2.0 7.0 0.01 0.01 0.00 77 1009.8
20260902200031 58 175 2.0 9.0 0.00 0.00 0.00 75 1009.7
20260902194530 59 131 3.0 9.0 0.00 0.00 0.00 74 1009.7
20260902193031 60 339 2.0 7.0 0.00 0.00 0.00 76 1009.7
20260902191532 60 2 1.0 7.0 0.00 0.00 0.00 75 1009.7
20260902190030 61 25 0.0 3.0 0.00 0.00 0.00 74 1009.7
20260902184529 61 148 0.0 3.0 0.00 0.00 0.00 73 1009.7
20260902183034 62 217 2.0 4.0 0.00 0.00 0.00 73 1009.8
20260902181531 61 267 0.0 5.0 0.00 0.00 0.00 74 1009.6
20260902180030 60 292 0.0 1.0 0.00 0.00 0.00 74 1009.7
20260902174531 60 307 2.0 6.0 0.00 0.00 0.00 73 1009.7
20260902173032 61 273 4.0 7.0 0.00 0.00 0.00 73 1009.7
20260902171529 60 266 2.0 5.0 0.00 0.00 0.00 75 1009.8
20260902170032 59 272 1.0 4.0 0.00 0.00 0.00 76 1009.9
20260902164529 58 320 1.0 4.0 0.00 0.00 0.00 76 1010.2
20260902163030 58 326 1.0 4.0 0.00 0.00 0.00 77 1010.4
20260902160031 58 17 2.0 5.0 0.00 0.00 0.00 76 1010.7
20260902154647 58 12 2.0 4.0 0.00 0.00 0.00 79 1010.9
20260902153029 56 349 0.0 3.0 0.00 0.00 0.00 82 1011.0
20260902151532 55 85 0.0 2.0 0.00 0.00 0.00 84 1010.9
20260902150030 55 99 0.0 3.0 0.00 0.00 0.00 86 1011.1
20260902144530 52 151 1.0 5.0 0.00 0.00 0.00 89 1011.2
20260902143108 51 152 0.0 3.0 0.00 0.00 0.00 90 1011.3
20260902141531 49 148 2.0 4.0 0.00 0.00 0.00 90 1011.3
20260902140031 48 157 1.0 5.0 0.00 0.00 0.00 89 1011.4
20260902134531 47 116 0.0 5.0 0.00 0.00 0.00 89 1011.3
20260902131644 46 187 2.0 5.0 0.00 0.00 0.00 87 1011.5
20260902130032 46 158 2.0 5.0 0.00 0.00 0.00 85 1011.4
20260902124606 47 148 2.0 4.0 0.00 0.00 0.00 83 1011.5
20260902123033 49 196 2.0 5.0 0.00 0.00 0.00 81 1011.5
20260902121531 52 144 3.0 5.0 0.00 0.00 0.00 79 1011.7
20260902120106 52 325 3.0 6.0 0.00 0.00 0.00 78 1011.7
20260902111531 55 303 4.0 12.0 0.00 0.00 0.00 73 1011.5
20260902110030 56 309 4.0 13.0 0.00 0.00 0.00 72 1011.6
20260902103033 56 293 6.0 14.0 0.00 0.00 0.00 73 1012.0
20260902101531 56 286 5.0 13.0 0.00 0.00 0.00 73 1012.1
20260902100032 57 283 5.0 11.0 0.00 0.00 0.00 72 1012.3
20260902094530 57 276 5.0 14.0 0.00 0.00 0.00 72 1012.4
20260902093031 57 279 5.0 14.0 0.00 0.00 0.00 72 1012.5
20260902084530 57 279 5.0 13.0 0.00 0.00 0.00 72 1012.5
20260902083032 57 294 4.0 11.0 0.00 0.00 0.00 73 1012.6
20260902081530 57 287 4.0 11.0 0.00 0.00 0.00 73 1012.6
20260902080029 57 322 4.0 9.0 0.00 0.00 0.00 74 1012.6
20260902074606 57 301 5.0 11.0 0.00 0.00 0.00 74 1012.6
20260902073030 57 306 4.0 10.0 0.00 0.00 0.00 74 1012.7
20260902071532 57 316 5.0 13.0 0.00 0.00 0.00 73 1012.9
20260902070029 58 325 5.0 13.0 0.00 0.00 0.00 73 1013.1
20260902064532 58 307 5.0 13.0 0.00 0.00 0.00 72 1013.4
20260902063029 59 310 4.0 8.0 0.00 0.00 0.00 72 1013.6
20260902061531 59 312 5.0 19.0 0.00 0.00 0.00 71 1013.6
20260902060031 59 291 3.0 12.0 0.00 0.00 0.00 71 1013.6
20260902054529 59 195 0.0 7.0 0.00 0.00 0.00 70 1013.6
20260902053031 60 320 2.0 7.0 0.00 0.00 0.00 69 1013.4
20260902051529 59 263 4.0 10.0 0.00 0.00 0.00 70 1013.4
20260902050145 59 253 3.0 14.0 0.00 0.00 0.00 71 1013.3
20260902044530 59 281 2.0 7.0 0.00 0.00 0.00 70 1013.2
20260902043147 59 208 2.0 7.0 0.00 0.00 0.00 70 1013.1
20260902041605 59 255 4.0 11.0 0.00 0.00 0.00 69 1013.0
20260902040029 60 262 4.0 15.0 0.00 0.00 0.00 69 1012.8
20260902034607 60 293 5.0 14.0 0.00 0.00 0.00 69 1012.5
20260902033029 60 273 4.0 9.0 0.00 0.00 0.00 68 1012.5
20260902031531 60 296 4.0 14.0 0.00 0.00 0.00 67 1012.4
20260902030106 60 277 7.0 21.0 0.00 0.00 0.00 67 1012.4
20260902024609 60 259 5.0 14.0 0.00 0.00 0.00 68 1012.7
20260902021532 61 279 4.0 13.0 0.00 0.00 0.00 64 1012.5
20260902013032 64 277 7.0 15.0 0.00 0.00 0.00 60 1012.1
20260902011530 65 282 9.0 24.0 0.00 0.00 0.00 59 1011.9
20260902010030 66 292 8.0 18.0 0.00 0.00 0.00 59 1011.9
20260902003029 66 295 8.0 21.0 0.00 0.00 0.00 59 1011.5
20260902000108 67 276 7.0 17.0 0.00 0.00 0.00 60 1011.4
20260901234602 66 288 7.0 17.0 0.00 0.00 0.00 59 1011.4
20260901233031 67 317 7.0 20.0 0.00 0.00 0.00 57 1011.3
20260901230030 69 314 10.0 21.0 0.00 0.00 0.00 56 1011.1
20260901223107 68 303 11.0 26.0 0.00 0.00 0.00 56 1010.9
20260901221530 70 286 11.0 25.0 0.00 0.00 0.00 56 1010.8
20260901220030 69 300 9.0 21.0 0.00 0.00 0.00 56 1010.6
20260901214532 69 305 10.0 24.0 0.00 0.00 0.00 57 1010.4
20260901213105 69 315 9.0 19.0 0.00 0.00 0.00 57 1010.6
20260901211531 68 301 10.0 24.0 0.00 0.00 0.00 57 1010.7
20260901210031 69 291 12.0 22.0 0.00 0.00 0.00 56 1010.8
20260901203031 69 294 9.0 22.0 0.00 0.00 0.00 54 1011.1